Location: Casco Volunteer Fire Department
(44.5576°N, 87.6146°W)
Time: 09:42:53
(UTC+00:00)

Lacrosse 5 rocket - Visible Passes

Search period start: 10 April 2026 00:00
Search period end: 20 April 2026 00:00
Orbit: 391 x 478 km, 57.0° (Epoch: 10 April)

Date Brightness Start Highest point End Pass type
(mag) Time Alt. Az. Time Alt. Az. Time Alt. Az.
10 Apr 2.3 01:56:37 10° SSW 01:57:58 20° S 01:57:58 20° S visible
10 Apr 3.3 08:30:57 17° E 08:30:57 17° E 08:32:02 10° E visible
10 Apr 1.6 10:04:21 21° W 10:05:38 28° SW 10:08:32 10° S visible
11 Apr 2.1 01:15:02 10° S 01:17:24 19° SE 01:19:43 10° E visible
11 Apr 2.2 02:50:47 10° WSW 02:53:09 35° WNW 02:53:09 35° WNW visible
11 Apr 2.8 09:25:43 17° SSE 09:25:43 17° SSE 09:26:41 10° SSE visible
12 Apr 0.9 02:08:20 10° WSW 02:11:32 67° NW 02:14:14 14° NE visible
12 Apr 4.0 03:46:51 10° NW 03:47:37 13° NW 03:47:37 13° NW visible
13 Apr 0.5 01:26:03 10° SW 01:29:16 73° SE 01:32:27 10° NE visible
13 Apr 3.5 03:03:54 10° WNW 03:06:12 18° NNW 03:08:01 12° NNE visible
14 Apr 3.1 02:21:04 10° W 02:23:43 24° NNW 02:26:24 10° NNE visible
15 Apr 2.4 01:38:18 10° W 01:41:16 33° NNW 01:44:13 10° NE visible
15 Apr 4.0 03:17:43 10° NNW 03:18:42 11° NNW 03:19:41 10° N visible
16 Apr 3.8 02:34:27 10° NW 02:36:04 13° NNW 02:37:39 10° NNE visible
17 Apr 3.6 01:51:19 10° WNW 01:53:26 16° NNW 01:55:32 10° NNE visible
18 Apr 3.3 01:08:17 10° W 01:10:48 21° NNW 01:13:19 10° NNE visible
19 Apr 3.9 02:05:06 10° NNW 02:05:42 10° N 02:06:17 10° N visible
19 Apr 3.9 03:42:46 10° N 03:43:35 11° NNE 03:43:37 11° NNE visible
